Change the Weather History Date:

Wednesday, May 1, 2013

  Actual Average Record
Temperature  
Mean Temperature 44 °F -  
Max Temperature 55 °F 68 °F 90 °F (1959)
Min Temperature 32 °F 41 °F 29 °F (1950)
Degree Days  
Heating Degree Days 22    
Moisture  
Dew Point 39 °F    
Average Humidity 90    
Maximum Humidity 100    
Minimum Humidity 72    
Precipitation  
Precipitation 1.63 in - - ()
Sea Level Pressure  
Sea Level Pressure 30.23 in    
Wind  
Wind Speed 19 mph (NNE)    
Max Wind Speed 29 mph    
Max Gust Speed 37 mph    
Visibility 7 miles    
Events Rain , Snow    
Averages and records for this station are not official NWS values.
T = Trace of Precipitation, MM = Missing Value Source: NWS Daily Summary

Daily Weather History Graph

Daily Weather History Graph

Search for Another Location

Airport or City:

Trip Planner

Search our weather history database for the weather conditions in past years. The results will help you decide how hot, cold, wet, or windy it might be!

Date:

Astronomy

May. 01, 2013 Rise Set
Actual Time 6:17 AM CDT 8:19 PM CDT
Civil Twilight 5:47 AM CDT 8:49 PM CDT
Nautical Twilight 5:10 AM CDT 9:27 PM CDT
Astronomical Twilight 4:30 AM CDT 10:07 PM CDT
Moon 1:30 AM CDT (5/1) 11:57 AM CDT (5/1)
Length of Visible Light 15h 02m
Length of Day
14h 01m
Waning Gibbous, 59% of the Moon is Illuminated
May 1
Waning Gibbous
May 2
Last Quarter
May 9
New
May 17
First Quarter
May 24
Full

Hourly Weather History & Observations

Time (CDT) Temp. Windchill Dew Point Humidity Pressure Visibility Wind Dir Wind Speed Gust Speed Precip Events Conditions
12:15 AM 55.4 °F - 48.2 °F 77% 29.95 in 10.0 mi North 10.4 mph - N/A   Overcast
12:35 AM 55.4 °F - 46.4 °F 72% 29.98 in 10.0 mi North 13.8 mph 18.4 mph N/A Rain Light Rain
12:55 AM 53.6 °F - 46.4 °F 77% 29.98 in 10.0 mi North 13.8 mph - N/A Rain Light Rain
1:15 AM 53.6 °F - 48.2 °F 82% 30.00 in 10.0 mi North 15.0 mph - N/A Rain Light Rain
1:35 AM 53.6 °F - 46.4 °F 77% 30.02 in 10.0 mi North 23.0 mph 26.5 mph N/A Rain Light Rain
1:55 AM 51.8 °F - 44.6 °F 76% 29.99 in 10.0 mi NNE 20.7 mph 31.1 mph N/A   Overcast
2:15 AM 51.8 °F - 44.6 °F 76% 29.99 in 10.0 mi NNE 18.4 mph 28.8 mph N/A   Overcast
2:35 AM 51.8 °F - 44.6 °F 76% 30.03 in 10.0 mi North 19.6 mph 24.2 mph N/A   Overcast
2:55 AM 50.0 °F - 44.6 °F 82% 30.05 in 10.0 mi North 24.2 mph 29.9 mph N/A   Overcast
3:15 AM 48.2 °F - 42.8 °F 82% 30.05 in 10.0 mi North 21.9 mph 27.6 mph N/A   Overcast
3:35 AM 48.2 °F - 44.6 °F 87% 30.05 in 10.0 mi North 21.9 mph 31.1 mph N/A   Overcast
3:55 AM 48.2 °F - 42.8 °F 82% 30.04 in 10.0 mi NNE 25.3 mph 29.9 mph N/A   Overcast
4:15 AM 48.2 °F - 42.8 °F 82% 30.05 in 10.0 mi NNE 19.6 mph 29.9 mph N/A   Overcast
4:35 AM 48.2 °F - 42.8 °F 82% 30.09 in 10.0 mi North 19.6 mph 25.3 mph N/A   Overcast
4:55 AM 46.4 °F 40.1 °F 42.8 °F 87% 30.10 in 10.0 mi NNE 15.0 mph 27.6 mph N/A   Overcast
5:15 AM 46.4 °F 39.0 °F 42.8 °F 87% 30.10 in 10.0 mi NNE 19.6 mph 25.3 mph N/A   Overcast
5:35 AM 46.4 °F 39.0 °F 42.8 °F 87% 30.12 in 10.0 mi North 19.6 mph 26.5 mph N/A   Overcast
5:55 AM 46.4 °F 39.0 °F 42.8 °F 87% 30.11 in 10.0 mi NNE 19.6 mph 26.5 mph N/A   Overcast
6:15 AM 46.4 °F 38.3 °F 41.0 °F 81% 30.12 in 10.0 mi NNE 23.0 mph 28.8 mph N/A   Overcast
6:35 AM 46.4 °F 38.5 °F 41.0 °F 81% 30.14 in 10.0 mi NNE 21.9 mph 26.5 mph N/A   Overcast
6:55 AM 46.4 °F 38.7 °F 41.0 °F 81% 30.14 in 10.0 mi NNE 20.7 mph 25.3 mph N/A   Overcast
7:15 AM 46.4 °F 38.3 °F 41.0 °F 81% 30.15 in 10.0 mi NNE 23.0 mph 28.8 mph N/A   Overcast
7:35 AM 44.6 °F 36.4 °F 41.0 °F 87% 30.17 in 10.0 mi NNE 20.7 mph 27.6 mph N/A   Overcast
8:15 AM 44.6 °F 36.6 °F 41.0 °F 87% 30.19 in 10.0 mi North 19.6 mph 29.9 mph N/A   Overcast
8:35 AM 44.6 °F 35.9 °F 41.0 °F 87% 30.20 in 10.0 mi North 23.0 mph 29.9 mph N/A   Overcast
8:55 AM 44.6 °F 36.4 °F 39.2 °F 81% 30.20 in 10.0 mi North 20.7 mph 31.1 mph N/A   Overcast
9:15 AM 42.8 °F 32.9 °F 39.2 °F 87% 30.20 in 10.0 mi North 26.5 mph 35.7 mph N/A   Overcast
9:35 AM 42.8 °F 32.9 °F 39.2 °F 87% 30.22 in 10.0 mi NNE 26.5 mph 34.5 mph N/A   Overcast
9:55 AM 41.0 °F 30.7 °F 37.4 °F 87% 30.22 in 10.0 mi NNE 25.3 mph 35.7 mph N/A   Overcast
10:15 AM 41.0 °F 30.5 °F 37.4 °F 87% 30.24 in 10.0 mi NNE 26.5 mph 33.4 mph N/A   Overcast
10:35 AM 39.2 °F 28.5 °F 35.6 °F 87% 30.25 in 10.0 mi NNE 24.2 mph 35.7 mph N/A   Overcast
10:55 AM 39.2 °F 29.6 °F 37.4 °F 93% 30.26 in 10.0 mi North 19.6 mph 28.8 mph N/A   Overcast
11:15 AM 39.2 °F 29.6 °F 37.4 °F 93% 30.24 in 10.0 mi NNE 19.6 mph - N/A   Overcast
11:35 AM 41.0 °F 30.0 °F 37.4 °F 87% 30.24 in 10.0 mi NNE 28.8 mph 33.4 mph N/A   Overcast
11:55 AM 39.2 °F 28.3 °F 35.6 °F 87% 30.26 in 10.0 mi NNE 25.3 mph 31.1 mph N/A   Overcast
12:15 PM 39.2 °F 29.6 °F 37.4 °F 93% 30.25 in 10.0 mi NNE 19.6 mph 29.9 mph N/A   Overcast
12:35 PM 41.0 °F 31.4 °F 37.4 °F 87% 30.25 in 10.0 mi NNE 21.9 mph 29.9 mph N/A   Overcast
12:55 PM 41.0 °F 31.4 °F 37.4 °F 87% 30.27 in 10.0 mi NNE 21.9 mph 27.6 mph N/A   Overcast
1:15 PM 41.0 °F 31.4 °F 37.4 °F 87% 30.28 in 10.0 mi NNE 21.9 mph 29.9 mph N/A   Overcast
1:35 PM 41.0 °F 31.6 °F 37.4 °F 87% 30.30 in 10.0 mi NNE 20.7 mph 28.8 mph N/A   Overcast
1:55 PM 39.2 °F 29.0 °F 35.6 °F 87% 30.30 in 10.0 mi North 21.9 mph 31.1 mph N/A   Overcast
2:15 PM 39.2 °F 29.3 °F 37.4 °F 93% 30.30 in 3.0 mi NNE 20.7 mph 28.8 mph N/A Rain Light Rain
2:35 PM 37.4 °F 27.5 °F 37.4 °F 100% 30.31 in 3.0 mi North 18.4 mph 31.1 mph N/A Rain Light Rain
2:55 PM 37.4 °F 26.4 °F 37.4 °F 100% 30.31 in 4.0 mi NNE 23.0 mph 27.6 mph N/A   Overcast
3:15 PM 37.4 °F 26.6 °F 37.4 °F 100% 30.31 in 4.0 mi North 21.9 mph 27.6 mph N/A Rain Light Rain
3:35 PM 37.4 °F 27.2 °F 37.4 °F 100% 30.33 in 4.0 mi North 19.6 mph 32.2 mph 0.01 in Rain Light Rain
3:55 PM 35.6 °F 24.0 °F 35.6 °F 100% 30.34 in 2.5 mi NNE 23.0 mph 29.9 mph 0.03 in Rain Light Rain
4:15 PM 35.6 °F 24.5 °F 35.6 °F 100% 30.33 in 2.5 mi NNE 20.7 mph 27.6 mph 0.02 in Rain Light Rain
4:35 PM 35.6 °F 24.5 °F 35.6 °F 100% 30.35 in 2.5 mi NNE 20.7 mph 33.4 mph 0.03 in Rain Light Rain
4:55 PM 35.6 °F 24.5 °F 35.6 °F 100% 30.35 in 1.5 mi NNE 20.7 mph 25.3 mph 0.07 in   Overcast
5:15 PM 35.6 °F 24.0 °F 35.6 °F 100% 30.34 in 3.0 mi North 23.0 mph 28.8 mph 0.02 in Snow Light Snow
5:35 PM 33.8 °F 21.0 °F 33.8 °F 100% 30.35 in 10.0 mi North 25.3 mph 32.2 mph 0.02 in Rain Light Rain
5:55 PM 33.8 °F 21.3 °F 33.8 °F 100% 30.34 in 4.0 mi North 24.2 mph 36.8 mph 0.02 in Rain Light Rain
6:15 PM 33.8 °F 20.8 °F 33.8 °F 100% 30.36 in 3.0 mi NNE 26.5 mph 33.4 mph 0.01 in Rain Rain
6:35 PM 33.8 °F 21.3 °F 33.8 °F 100% 30.36 in 2.5 mi North 24.2 mph 33.4 mph 0.05 in Rain Light Rain
6:55 PM 33.8 °F 21.6 °F 33.8 °F 100% 30.37 in 5.0 mi North 23.0 mph 28.8 mph 0.07 in Rain Light Rain
7:15 PM 32.0 °F 18.6 °F 32.0 °F 100% 30.33 in 1.5 mi NNE 25.3 mph 31.1 mph 0.09 in Rain Rain
7:35 PM 33.8 °F 22.8 °F 33.8 °F 100% 30.38 in 1.5 mi North 18.4 mph 28.8 mph 0.17 in   Overcast
7:55 PM 33.8 °F 22.2 °F 33.8 °F 100% 30.35 in 2.0 mi NNE 20.7 mph 28.8 mph 0.24 in   Overcast
8:35 PM 33.8 °F 22.5 °F 33.8 °F 100% 30.39 in 2.5 mi North 19.6 mph 28.8 mph 0.17 in Snow Snow
8:55 PM 33.8 °F 24.3 °F 33.8 °F 100% 30.40 in 2.0 mi North 13.8 mph 24.2 mph 0.27 in   Overcast
9:35 PM 33.8 °F 21.9 °F 33.8 °F 100% 30.40 in 1.0 mi North 21.9 mph 28.8 mph 0.32 in Snow Light Snow
9:55 PM 33.8 °F 25.3 °F 33.8 °F 100% 30.42 in 2.0 mi North 11.5 mph 26.5 mph 0.45 in   Overcast
10:15 PM 33.8 °F 22.2 °F 33.8 °F 100% 30.43 in 1.5 mi North 20.7 mph 28.8 mph 0.12 in Rain Rain
10:35 PM 33.8 °F 22.2 °F 33.8 °F 100% 30.41 in 3.0 mi North 20.7 mph 34.5 mph 0.19 in Snow Light Snow
10:55 PM 33.8 °F 21.0 °F 33.8 °F 100% 30.40 in 1.8 mi North 25.3 mph 33.4 mph 0.26 in Snow Snow
11:15 PM 33.8 °F 21.3 °F 33.8 °F 100% 30.40 in 3.0 mi NNE 24.2 mph 27.6 mph 0.08 in Rain Light Rain
11:35 PM 33.8 °F 21.9 °F 33.8 °F 100% 30.42 in 2.5 mi North 21.9 mph 35.7 mph 0.15 in   Overcast
11:55 PM 33.8 °F 21.9 °F 33.8 °F 100% 30.40 in 2.0 mi NNE 21.9 mph 29.9 mph 0.22 in Snow Snow